| time (UTC) | temp F | wind direction | speed MPH | gust MPH | rain 1hr in | rain 24hr in | rain mn in | humidity % | barometer mb |
| 20260904102003 | 67 | 29 | 13.0 | 16.0 | 0.00 | 0.27 | 0.27 | 99 | 1017.7 |
| 20260904101500 | 68 | 29 | 13.0 | 16.0 | 0.00 | 0.27 | 0.27 | 99 | 1017.9 |
| 20260904100955 | 68 | 29 | 13.0 | 16.0 | 0.00 | 0.27 | 0.27 | 99 | 1017.7 |
| 20260904100450 | 68 | 29 | 13.0 | 16.0 | 0.00 | 0.27 | 0.27 | 99 | 1017.6 |
| 20260904095949 | 68 | 29 | 13.0 | 16.0 | 0.00 | 0.27 | 0.27 | 99 | 1017.4 |
| 20260904095444 | 68 | 29 | 13.0 | 16.0 | 0.00 | 0.27 | 0.27 | 99 | 1017.3 |
| 20260904094944 | 68 | 29 | 13.0 | 16.0 | 0.00 | 0.27 | 0.27 | 99 | 1017.4 |
| 20260904094440 | 68 | 29 | 13.0 | 16.0 | 0.00 | 0.27 | 0.27 | 99 | 1017.4 |
| 20260904093936 | 68 | 29 | 13.0 | 16.0 | 0.00 | 0.27 | 0.27 | 99 | 1017.6 |
| 20260904093431 | 68 | 29 | 13.0 | 16.0 | 0.00 | 0.27 | 0.27 | 99 | 1017.8 |
| 20260904092926 | 68 | 29 | 13.0 | 16.0 | 0.00 | 0.27 | 0.27 | 99 | 1017.6 |
| 20260904092423 | 68 | 29 | 13.0 | 16.0 | 0.00 | 0.27 | 0.27 | 99 | 1017.7 |
| 20260904091913 | 68 | 29 | 13.0 | 16.0 | 0.00 | 0.27 | 0.27 | 99 | 1017.5 |
| 20260904091408 | 69 | 29 | 13.0 | 16.0 | 0.00 | 0.27 | 0.27 | 99 | 1017.4 |
| 20260904090903 | 69 | 29 | 13.0 | 16.0 | 0.00 | 0.27 | 0.27 | 99 | 1017.4 |
| 20260904090359 | 69 | 29 | 13.0 | 16.0 | 0.00 | 0.27 | 0.27 | 99 | 1017.4 |
| 20260904085849 | 69 | 29 | 13.0 | 16.0 | 0.00 | 0.27 | 0.27 | 99 | 1017.3 |
| 20260904085343 | 69 | 29 | 13.0 | 16.0 | 0.00 | 0.27 | 0.27 | 99 | 1017.1 |
| 20260904084838 | 69 | 29 | 13.0 | 16.0 | 0.00 | 0.27 | 0.27 | 99 | 1017.2 |
| 20260904084334 | 69 | 29 | 13.0 | 16.0 | 0.00 | 0.27 | 0.27 | 99 | 1017.0 |
| 20260904083830 | 69 | 29 | 13.0 | 16.0 | 0.00 | 0.27 | 0.27 | 99 | 1017.1 |
| 20260904083326 | 69 | 29 | 13.0 | 16.0 | 0.00 | 0.27 | 0.27 | 99 | 1016.9 |
| 20260904082822 | 69 | 29 | 13.0 | 16.0 | 0.00 | 0.27 | 0.27 | 99 | 1016.7 |
| 20260904082316 | 69 | 29 | 13.0 | 16.0 | 0.02 | 0.27 | 0.27 | 99 | 1016.5 |
| 20260904081811 | 69 | 29 | 13.0 | 16.0 | 0.05 | 0.27 | 0.27 | 99 | 1016.4 |
| 20260904081307 | 69 | 29 | 13.0 | 16.0 | 0.07 | 0.27 | 0.27 | 99 | 1016.3 |
| 20260904080803 | 69 | 29 | 13.0 | 16.0 | 0.09 | 0.26 | 0.26 | 99 | 1016.7 |
| 20260904080258 | 69 | 29 | 13.0 | 16.0 | 0.12 | 0.26 | 0.26 | 99 | 1017.0 |
| 20260904075754 | 69 | 29 | 13.0 | 16.0 | 0.09 | 0.24 | 0.24 | 99 | 1017.2 |
| 20260904075254 | 69 | 29 | 13.0 | 16.0 | 0.12 | 0.23 | 0.23 | 99 | 1017.5 |
| 20260904074747 | 69 | 29 | 13.0 | 16.0 | 0.61 | 0.23 | 0.23 | 99 | 1017.7 |
| 20260904074242 | 70 | 29 | 13.0 | 16.0 | 0.90 | 0.20 | 0.20 | 99 | 1017.8 |
| 20260904073737 | 70 | 29 | 13.0 | 16.0 | 0.59 | 0.11 | 0.11 | 99 | 1018.3 |
| 20260904073228 | 69 | 29 | 13.0 | 16.0 | 0.12 | 0.02 | 0.02 | 99 | 1018.3 |
| 20260904072724 | 69 | 29 | 13.0 | 16.0 | 0.07 | 0.01 | 0.01 | 99 | 1017.7 |
| 20260904072218 | 70 | 29 | 13.0 | 16.0 | 0.02 | 0.00 | 0.00 | 99 | 1017.4 |
| 20260904071714 | 71 | 29 | 13.0 | 16.0 | 0.00 | 0.00 | 0.00 | 99 | 1017.4 |
| 20260904071209 | 71 | 29 | 13.0 | 16.0 | 0.00 | 0.00 | 0.00 | 99 | 1017.1 |
| 20260904070709 | 71 | 29 | 13.0 | 16.0 | 0.00 | 0.00 | 0.00 | 99 | 1017.2 |
| 20260904070207 | 71 | 29 | 13.0 | 16.0 | 0.00 | 0.00 | 0.00 | 99 | 1017.3 |
| 20260904065702 | 71 | 29 | 13.0 | 16.0 | 0.00 | 0.00 | 0.00 | 99 | 1017.5 |
| 20260904065159 | 71 | 29 | 13.0 | 16.0 | 0.00 | 0.00 | 0.00 | 99 | 1017.5 |
| 20260904064653 | 71 | 29 | 13.0 | 16.0 | 0.00 | 0.00 | 0.00 | 99 | 1017.6 |
| 20260904064149 | 71 | 29 | 13.0 | 16.0 | 0.00 | 0.00 | 0.00 | 99 | 1017.6 |
| 20260904063645 | 71 | 29 | 13.0 | 16.0 | 0.00 | 0.00 | 0.00 | 99 | 1017.6 |
| 20260904063140 | 71 | 29 | 13.0 | 16.0 | 0.00 | 0.00 | 0.00 | 99 | 1017.7 |
| 20260904062636 | 71 | 29 | 13.0 | 16.0 | 0.00 | 0.00 | 0.00 | 99 | 1017.8 |
| 20260904062132 | 71 | 29 | 13.0 | 16.0 | 0.00 | 0.00 | 0.00 | 99 | 1017.5 |
| 20260904061627 | 71 | 29 | 13.0 | 16.0 | 0.00 | 0.00 | 0.00 | 99 | 1017.7 |
| 20260904061123 | 71 | 29 | 13.0 | 16.0 | 0.00 | 0.00 | 0.00 | 99 | 1018.0 |
| 20260904060620 | 71 | 29 | 13.0 | 16.0 | 0.00 | 0.00 | 0.00 | 99 | 1018.1 |
| 20260904060115 | 71 | 29 | 13.0 | 16.0 | 0.00 | 0.00 | 0.00 | 99 | 1018.0 |
| 20260904055610 | 70 | 29 | 13.0 | 16.0 | 0.00 | 0.00 | 0.00 | 99 | 1018.0 |
| 20260904055105 | 70 | 29 | 13.0 | 16.0 | 0.00 | 0.00 | 0.00 | 99 | 1018.2 |
| 20260904054601 | 70 | 29 | 13.0 | 16.0 | 0.00 | 0.00 | 0.00 | 99 | 1018.3 |
| 20260904054056 | 70 | 29 | 13.0 | 16.0 | 0.00 | 0.00 | 0.00 | 99 | 1018.1 |
| 20260904053555 | 70 | 29 | 13.0 | 16.0 | 0.00 | 0.00 | 0.00 | 99 | 1018.2 |
| 20260904053046 | 70 | 29 | 13.0 | 16.0 | 0.00 | 0.00 | 0.00 | 99 | 1018.3 |
| 20260904052542 | 71 | 29 | 13.0 | 16.0 | 0.00 | 0.00 | 0.00 | 99 | 1018.2 |
| 20260904052038 | 71 | 29 | 13.0 | 16.0 | 0.00 | 0.00 | 0.00 | 99 | 1018.1 |
| 20260904051534 | 70 | 29 | 13.0 | 16.0 | 0.00 | 0.00 | 0.00 | 99 | 1018.3 |
| 20260904051033 | 70 | 29 | 13.0 | 16.0 | 0.00 | 0.00 | 0.00 | 99 | 1018.3 |
| 20260904050529 | 71 | 29 | 13.0 | 16.0 | 0.00 | 0.00 | 0.00 | 99 | 1018.1 |
| 20260904050025 | 71 | 29 | 13.0 | 16.0 | 0.00 | 0.00 | 0.00 | 99 | 1018.0 |
| 20260904045520 | 71 | 29 | 13.0 | 16.0 | 0.00 | 0.00 | 0.00 | 99 | 1018.2 |
| 20260904045015 | 71 | 29 | 13.0 | 16.0 | 0.00 | 0.00 | 0.00 | 99 | 1018.4 |
| 20260904044511 | 71 | 29 | 13.0 | 16.0 | 0.00 | 0.00 | 0.00 | 99 | 1018.7 |
| 20260904044007 | 71 | 29 | 13.0 | 16.0 | 0.00 | 0.00 | 0.00 | 99 | 1018.9 |
| 20260904043503 | 71 | 29 | 13.0 | 16.0 | 0.00 | 0.00 | 0.00 | 99 | 1018.7 |
| 20260904042958 | 71 | 29 | 13.0 | 16.0 | 0.00 | 0.00 | 0.00 | 99 | 1018.8 |
| 20260904042455 | 71 | 29 | 13.0 | 16.0 | 0.00 | 0.00 | 0.00 | 99 | 1018.6 |
| 20260904041949 | 71 | 29 | 13.0 | 16.0 | 0.00 | 0.00 | 0.00 | 99 | 1018.9 |
| 20260904041446 | 71 | 29 | 13.0 | 16.0 | 0.00 | 0.00 | 0.00 | 99 | 1018.8 |
| 20260904040942 | 71 | 29 | 13.0 | 16.0 | 0.00 | 0.00 | 0.00 | 99 | 1018.7 |
| 20260904040441 | 71 | 29 | 13.0 | 16.0 | 0.00 | 0.00 | 0.00 | 99 | 1018.8 |
| 20260904035937 | 71 | 29 | 13.0 | 16.0 | 0.00 | 0.33 | 0.33 | 99 | 1018.9 |
| 20260904035433 | 71 | 29 | 13.0 | 16.0 | 0.00 | 0.33 | 0.33 | 99 | 1018.8 |
| 20260904034932 | 71 | 29 | 13.0 | 16.0 | 0.00 | 0.33 | 0.33 | 99 | 1018.7 |
| 20260904034427 | 71 | 29 | 13.0 | 16.0 | 0.00 | 0.33 | 0.33 | 99 | 1018.6 |
| 20260904033923 | 71 | 29 | 13.0 | 16.0 | 0.00 | 0.33 | 0.33 | 99 | 1018.9 |
| 20260904033419 | 71 | 29 | 13.0 | 16.0 | 0.00 | 0.33 | 0.33 | 99 | 1018.9 |
| 20260904032915 | 71 | 29 | 13.0 | 16.0 | 0.00 | 0.33 | 0.33 | 99 | 1018.9 |
| 20260904032410 | 71 | 29 | 13.0 | 16.0 | 0.00 | 0.33 | 0.33 | 99 | 1018.9 |
| 20260904031910 | 71 | 29 | 13.0 | 16.0 | 0.00 | 0.33 | 0.33 | 99 | 1018.9 |
| 20260904031405 | 71 | 29 | 13.0 | 16.0 | 0.00 | 0.33 | 0.33 | 99 | 1018.9 |
| 20260904030902 | 71 | 29 | 13.0 | 16.0 | 0.00 | 0.33 | 0.33 | 99 | 1019.2 |
| 20260904030357 | 71 | 29 | 13.0 | 16.0 | 0.00 | 0.33 | 0.33 | 99 | 1019.1 |
| 20260904025852 | 71 | 29 | 13.0 | 16.0 | 0.00 | 0.33 | 0.33 | 99 | 1019.3 |
| 20260904025348 | 71 | 29 | 13.0 | 16.0 | 0.00 | 0.33 | 0.33 | 99 | 1019.3 |
| 20260904024848 | 72 | 29 | 13.0 | 16.0 | 0.00 | 0.33 | 0.33 | 99 | 1019.4 |
| 20260904024343 | 72 | 29 | 13.0 | 16.0 | 0.00 | 0.33 | 0.33 | 99 | 1019.3 |
| 20260904023839 | 71 | 29 | 13.0 | 16.0 | 0.00 | 0.33 | 0.33 | 99 | 1019.5 |
| 20260904023335 | 71 | 29 | 13.0 | 16.0 | 0.00 | 0.33 | 0.33 | 99 | 1019.5 |
| 20260904022834 | 71 | 29 | 13.0 | 16.0 | 0.00 | 0.33 | 0.33 | 98 | 1019.4 |
| 20260904022331 | 72 | 29 | 13.0 | 16.0 | 0.00 | 0.33 | 0.33 | 98 | 1019.5 |
| 20260904021828 | 72 | 29 | 13.0 | 16.0 | 0.00 | 0.33 | 0.33 | 98 | 1019.6 |
| 20260904021327 | 72 | 29 | 13.0 | 16.0 | 0.00 | 0.33 | 0.33 | 98 | 1019.6 |
| 20260904020823 | 72 | 29 | 13.0 | 16.0 | 0.00 | 0.33 | 0.33 | 98 | 1019.8 |
| 20260904020318 | 72 | 29 | 13.0 | 16.0 | 0.00 | 0.33 | 0.33 | 98 | 1019.6 |
| 20260904015816 | 72 | 29 | 13.0 | 16.0 | 0.00 | 0.33 | 0.33 | 98 | 1019.7 |
| 20260904015312 | 72 | 29 | 13.0 | 16.0 | 0.00 | 0.33 | 0.33 | 98 | 1019.9 |
| 20260904014810 | 72 | 29 | 13.0 | 16.0 | 0.00 | 0.33 | 0.33 | 98 | 1019.6 |
| 20260904014311 | 72 | 29 | 13.0 | 16.0 | 0.00 | 0.33 | 0.33 | 98 | 1019.8 |
| 20260904013807 | 72 | 29 | 13.0 | 16.0 | 0.00 | 0.33 | 0.33 | 97 | 1019.9 |
| 20260904013302 | 72 | 29 | 13.0 | 16.0 | 0.00 | 0.33 | 0.33 | 97 | 1020.0 |
| 20260904012758 | 73 | 29 | 13.0 | 16.0 | 0.00 | 0.33 | 0.33 | 97 | 1019.9 |
| 20260904012253 | 73 | 29 | 13.0 | 16.0 | 0.00 | 0.33 | 0.33 | 97 | 1020.0 |
| 20260904011752 | 73 | 29 | 13.0 | 16.0 | 0.00 | 0.33 | 0.33 | 97 | 1019.9 |
| 20260904011247 | 73 | 29 | 13.0 | 16.0 | 0.00 | 0.33 | 0.33 | 97 | 1019.8 |
| 20260904010742 | 73 | 29 | 13.0 | 16.0 | 0.00 | 0.33 | 0.33 | 97 | 1019.8 |
| 20260904010238 | 73 | 29 | 13.0 | 16.0 | 0.00 | 0.33 | 0.33 | 97 | 1019.9 |
| 20260904005733 | 73 | 29 | 13.0 | 16.0 | 0.00 | 0.33 | 0.33 | 96 | 1019.8 |
| 20260904005229 | 73 | 29 | 13.0 | 16.0 | 0.00 | 0.33 | 0.33 | 96 | 1019.8 |
| 20260904004724 | 73 | 29 | 13.0 | 16.0 | 0.00 | 0.33 | 0.33 | 96 | 1019.6 |
| 20260904004220 | 73 | 29 | 13.0 | 16.0 | 0.00 | 0.33 | 0.33 | 96 | 1019.5 |
| 20260904003714 | 73 | 29 | 13.0 | 16.0 | 0.00 | 0.33 | 0.33 | 96 | 1019.5 |
| 20260904003210 | 73 | 29 | 13.0 | 16.0 | 0.00 | 0.33 | 0.33 | 96 | 1019.6 |
| 20260904002700 | 73 | 29 | 13.0 | 16.0 | 0.00 | 0.33 | 0.33 | 95 | 1019.5 |
| 20260904002155 | 73 | 29 | 13.0 | 16.0 | 0.00 | 0.33 | 0.33 | 95 | 1019.6 |
| 20260904001645 | 73 | 29 | 13.0 | 16.0 | 0.00 | 0.33 | 0.33 | 95 | 1019.8 |
| 20260904001144 | 74 | 29 | 13.0 | 16.0 | 0.00 | 0.33 | 0.33 | 96 | 1019.4 |
| 20260904000639 | 74 | 29 | 13.0 | 16.0 | 0.00 | 0.33 | 0.33 | 96 | 1019.6 |
| 20260904000134 | 74 | 29 | 13.0 | 16.0 | 0.00 | 0.33 | 0.33 | 96 | 1019.5 |
| 20260903235634 | 74 | 29 | 13.0 | 16.0 | 0.00 | 0.33 | 0.33 | 96 | 1019.1 |
| 20260903235130 | 74 | 29 | 13.0 | 16.0 | 0.00 | 0.33 | 0.33 | 95 | 1019.1 |
| 20260903234625 | 74 | 29 | 13.0 | 16.0 | 0.00 | 0.33 | 0.33 | 95 | 1019.0 |
| 20260903234121 | 74 | 29 | 13.0 | 16.0 | 0.00 | 0.33 | 0.33 | 95 | 1019.0 |
| 20260903233617 | 74 | 29 | 13.0 | 16.0 | 0.00 | 0.33 | 0.33 | 95 | 1019.1 |
| 20260903233113 | 75 | 29 | 13.0 | 16.0 | 0.00 | 0.33 | 0.33 | 95 | 1019.1 |
| 20260903232607 | 75 | 29 | 13.0 | 16.0 | 0.00 | 0.33 | 0.33 | 95 | 1019.1 |
| 20260903232103 | 75 | 29 | 13.0 | 16.0 | 0.00 | 0.33 | 0.33 | 95 | 1019.0 |
| 20260903231556 | 75 | 29 | 13.0 | 16.0 | 0.00 | 0.33 | 0.33 | 94 | 1019.0 |
| 20260903231051 | 75 | 29 | 13.0 | 16.0 | 0.00 | 0.33 | 0.33 | 94 | 1019.0 |
| 20260903230548 | 76 | 29 | 13.0 | 16.0 | 0.00 | 0.33 | 0.33 | 94 | 1019.1 |
| 20260903230045 | 76 | 29 | 13.0 | 16.0 | 0.00 | 0.33 | 0.33 | 93 | 1019.0 |
| 20260903225543 | 76 | 29 | 13.0 | 16.0 | 0.00 | 0.33 | 0.33 | 92 | 1018.9 |
| 20260903225040 | 76 | 29 | 13.0 | 16.0 | 0.00 | 0.33 | 0.33 | 92 | 1019.0 |
| 20260903224535 | 76 | 29 | 13.0 | 16.0 | 0.00 | 0.33 | 0.33 | 92 | 1019.0 |
| 20260903224032 | 76 | 29 | 13.0 | 16.0 | 0.00 | 0.33 | 0.33 | 92 | 1019.1 |
| 20260903223531 | 76 | 29 | 13.0 | 16.0 | 0.00 | 0.33 | 0.33 | 93 | 1019.1 |
| 20260903223030 | 76 | 29 | 13.0 | 16.0 | 0.00 | 0.33 | 0.33 | 93 | 1019.3 |
| 20260903222525 | 76 | 29 | 13.0 | 16.0 | 0.00 | 0.33 | 0.33 | 92 | 1019.2 |
| 20260903222024 | 76 | 29 | 13.0 | 16.0 | 0.00 | 0.33 | 0.33 | 91 | 1019.3 |
| 20260903221520 | 77 | 29 | 13.0 | 16.0 | 0.00 | 0.33 | 0.33 | 91 | 1019.3 |
| 20260903221016 | 77 | 29 | 13.0 | 16.0 | 0.00 | 0.33 | 0.33 | 91 | 1019.4 |
| 20260903220511 | 77 | 29 | 13.0 | 16.0 | 0.00 | 0.33 | 0.33 | 91 | 1019.4 |
| 20260903220010 | 77 | 29 | 13.0 | 16.0 | 0.00 | 0.33 | 0.33 | 90 | 1019.4 |
| 20260903215505 | 77 | 29 | 13.0 | 16.0 | 0.00 | 0.33 | 0.33 | 89 | 1019.4 |
| 20260903215004 | 78 | 29 | 13.0 | 16.0 | 0.00 | 0.33 | 0.33 | 88 | 1019.4 |
| 20260903214459 | 79 | 29 | 13.0 | 16.0 | 0.00 | 0.33 | 0.33 | 86 | 1019.4 |
| 20260903213958 | 79 | 29 | 13.0 | 16.0 | 0.00 | 0.33 | 0.33 | 86 | 1019.3 |
| 20260903213454 | 80 | 29 | 13.0 | 16.0 | 0.00 | 0.33 | 0.33 | 83 | 1019.4 |
| 20260903212950 | 81 | 29 | 13.0 | 16.0 | 0.00 | 0.33 | 0.33 | 84 | 1019.3 |
| 20260903212446 | 82 | 29 | 13.0 | 16.0 | 0.00 | 0.33 | 0.33 | 79 | 1019.3 |
| 20260903211945 | 83 | 29 | 13.0 | 16.0 | 0.00 | 0.33 | 0.33 | 77 | 1019.2 |
| 20260903211446 | 83 | 29 | 13.0 | 16.0 | 0.00 | 0.33 | 0.33 | 74 | 1019.1 |
| 20260903210943 | 85 | 29 | 13.0 | 16.0 | 0.00 | 0.33 | 0.33 | 76 | 1019.1 |
| 20260903210442 | 85 | 29 | 13.0 | 16.0 | 0.00 | 0.33 | 0.33 | 77 | 1018.9 |
| 20260903205937 | 84 | 29 | 13.0 | 16.0 | 0.00 | 0.33 | 0.33 | 73 | 1019.0 |
| 20260903205432 | 85 | 29 | 13.0 | 16.0 | 0.00 | 0.33 | 0.33 | 76 | 1019.2 |
| 20260903204927 | 83 | 29 | 13.0 | 16.0 | 0.00 | 0.33 | 0.33 | 75 | 1019.2 |
| 20260903204423 | 82 | 29 | 13.0 | 16.0 | 0.00 | 0.33 | 0.33 | 82 | 1019.3 |
| 20260903203918 | 82 | 29 | 13.0 | 16.0 | 0.00 | 0.33 | 0.33 | 78 | 1019.2 |
| 20260903203414 | 82 | 29 | 13.0 | 16.0 | 0.00 | 0.33 | 0.33 | 76 | 1019.3 |
| 20260903202913 | 83 | 29 | 13.0 | 16.0 | 0.00 | 0.33 | 0.33 | 76 | 1019.4 |
| 20260903202409 | 84 | 29 | 13.0 | 16.0 | 0.00 | 0.33 | 0.33 | 74 | 1019.2 |
| 20260903201909 | 82 | 29 | 13.0 | 16.0 | 0.00 | 0.33 | 0.33 | 77 | 1019.3 |
| 20260903201404 | 83 | 29 | 13.0 | 16.0 | 0.00 | 0.33 | 0.33 | 77 | 1019.5 |
| 20260903200903 | 82 | 29 | 13.0 | 16.0 | 0.00 | 0.33 | 0.33 | 77 | 1019.6 |
| 20260903200358 | 81 | 29 | 13.0 | 16.0 | 0.00 | 0.33 | 0.33 | 81 | 1019.6 |
| 20260903195853 | 82 | 29 | 13.0 | 16.0 | 0.00 | 0.33 | 0.33 | 78 | 1019.7 |
| 20260903195350 | 82 | 29 | 13.0 | 16.0 | 0.00 | 0.33 | 0.33 | 77 | 1019.5 |
| 20260903194844 | 82 | 29 | 13.0 | 16.0 | 0.00 | 0.33 | 0.33 | 77 | 1019.4 |
| 20260903194340 | 83 | 29 | 13.0 | 16.0 | 0.00 | 0.33 | 0.33 | 74 | 1019.4 |
| 20260903193835 | 83 | 29 | 13.0 | 16.0 | 0.00 | 0.33 | 0.33 | 74 | 1019.4 |
| 20260903193332 | 84 | 29 | 13.0 | 16.0 | 0.00 | 0.33 | 0.33 | 73 | 1019.7 |
| 20260903192827 | 83 | 29 | 13.0 | 16.0 | 0.00 | 0.33 | 0.33 | 78 | 1019.6 |
| 20260903192322 | 82 | 29 | 13.0 | 16.0 | 0.00 | 0.33 | 0.33 | 80 | 1019.5 |
| 20260903191818 | 81 | 29 | 13.0 | 16.0 | 0.00 | 0.33 | 0.33 | 80 | 1019.6 |
| 20260903191313 | 81 | 29 | 13.0 | 16.0 | 0.00 | 0.33 | 0.33 | 79 | 1019.8 |
| 20260903190807 | 80 | 29 | 13.0 | 16.0 | 0.00 | 0.33 | 0.33 | 77 | 1019.7 |
| 20260903190302 | 81 | 29 | 13.0 | 16.0 | 0.00 | 0.33 | 0.33 | 75 | 1019.8 |
| 20260903185756 | 85 | 29 | 13.0 | 16.0 | 0.00 | 0.33 | 0.33 | 73 | 1020.1 |
| 20260903185251 | 84 | 29 | 13.0 | 16.0 | 0.00 | 0.33 | 0.33 | 74 | 1019.8 |
| 20260903184748 | 82 | 29 | 13.0 | 16.0 | 0.00 | 0.33 | 0.33 | 76 | 1019.9 |
| 20260903184243 | 84 | 29 | 13.0 | 16.0 | 0.00 | 0.33 | 0.33 | 73 | 1019.8 |
| 20260903183738 | 83 | 29 | 13.0 | 16.0 | 0.00 | 0.33 | 0.33 | 75 | 1019.9 |
| 20260903183233 | 81 | 29 | 13.0 | 16.0 | 0.00 | 0.33 | 0.33 | 77 | 1019.9 |
| 20260903182732 | 82 | 29 | 13.0 | 16.0 | 0.00 | 0.33 | 0.33 | 78 | 1020.0 |
| 20260903182227 | 80 | 29 | 13.0 | 16.0 | 0.00 | 0.33 | 0.33 | 77 | 1020.1 |
| 20260903181725 | 79 | 29 | 13.0 | 16.0 | 0.00 | 0.33 | 0.33 | 83 | 1019.9 |
| 20260903181215 | 79 | 29 | 13.0 | 16.0 | 0.00 | 0.33 | 0.33 | 82 | 1020.2 |
| 20260903180710 | 80 | 29 | 13.0 | 16.0 | 0.00 | 0.33 | 0.33 | 80 | 1020.3 |
| 20260903180204 | 80 | 29 | 13.0 | 16.0 | 0.00 | 0.33 | 0.33 | 80 | 1020.2 |
| 20260903175703 | 81 | 29 | 13.0 | 16.0 | 0.00 | 0.33 | 0.33 | 79 | 1020.2 |
| 20260903175202 | 82 | 29 | 13.0 | 16.0 | 0.00 | 0.33 | 0.33 | 77 | 1020.0 |
| 20260903174657 | 80 | 29 | 13.0 | 16.0 | 0.00 | 0.33 | 0.33 | 81 | 1020.1 |
| 20260903174151 | 79 | 29 | 13.0 | 16.0 | 0.00 | 0.33 | 0.33 | 82 | 1020.1 |
| 20260903173646 | 79 | 29 | 13.0 | 16.0 | 0.00 | 0.33 | 0.33 | 79 | 1020.1 |
| 20260903173143 | 78 | 29 | 13.0 | 16.0 | 0.00 | 0.33 | 0.33 | 83 | 1020.3 |
| 20260903172643 | 79 | 29 | 13.0 | 16.0 | 0.00 | 0.33 | 0.33 | 80 | 1020.3 |
| 20260903172138 | 80 | 29 | 13.0 | 16.0 | 0.00 | 0.33 | 0.33 | 80 | 1020.4 |
| 20260903171638 | 78 | 29 | 13.0 | 16.0 | 0.00 | 0.33 | 0.33 | 84 | 1020.6 |
| 20260903171134 | 78 | 29 | 13.0 | 16.0 | 0.00 | 0.33 | 0.33 | 85 | 1020.4 |
| 20260903170632 | 78 | 29 | 13.0 | 16.0 | 0.00 | 0.33 | 0.33 | 84 | 1020.4 |
| 20260903170128 | 78 | 29 | 13.0 | 16.0 | 0.00 | 0.33 | 0.33 | 82 | 1020.5 |
| 20260903165626 | 77 | 29 | 13.0 | 16.0 | 0.00 | 0.33 | 0.33 | 84 | 1020.9 |
| 20260903165121 | 78 | 29 | 13.0 | 16.0 | 0.00 | 0.33 | 0.33 | 83 | 1020.6 |
| 20260903164616 | 78 | 29 | 13.0 | 16.0 | 0.00 | 0.33 | 0.33 | 85 | 1020.5 |
| 20260903164112 | 78 | 29 | 13.0 | 16.0 | 0.00 | 0.33 | 0.33 | 87 | 1020.4 |
| 20260903163612 | 77 | 29 | 13.0 | 16.0 | 0.00 | 0.33 | 0.33 | 85 | 1020.5 |
| 20260903163108 | 77 | 29 | 13.0 | 16.0 | 0.00 | 0.33 | 0.33 | 84 | 1020.6 |
| 20260903162605 | 76 | 29 | 13.0 | 16.0 | 0.00 | 0.33 | 0.33 | 90 | 1020.7 |
| 20260903162100 | 76 | 29 | 13.0 | 16.0 | 0.00 | 0.33 | 0.33 | 88 | 1020.6 |
| 20260903161555 | 76 | 29 | 13.0 | 16.0 | 0.00 | 0.33 | 0.33 | 84 | 1020.7 |
| 20260903161051 | 76 | 29 | 13.0 | 16.0 | 0.00 | 0.33 | 0.33 | 87 | 1020.7 |
| 20260903160549 | 76 | 29 | 13.0 | 16.0 | 0.00 | 0.33 | 0.33 | 86 | 1021.1 |
| 20260903160045 | 76 | 29 | 13.0 | 16.0 | 0.00 | 0.33 | 0.33 | 86 | 1021.1 |
| 20260903155543 | 76 | 29 | 13.0 | 16.0 | 0.00 | 0.33 | 0.33 | 89 | 1021.2 |
| 20260903155039 | 75 | 29 | 13.0 | 16.0 | 0.00 | 0.33 | 0.33 | 88 | 1021.1 |
| 20260903154535 | 76 | 29 | 13.0 | 16.0 | 0.00 | 0.33 | 0.33 | 86 | 1021.2 |
| 20260903154031 | 75 | 29 | 13.0 | 16.0 | 0.00 | 0.33 | 0.33 | 91 | 1021.2 |
| 20260903153526 | 73 | 29 | 13.0 | 16.0 | 0.00 | 0.33 | 0.33 | 92 | 1021.2 |
| 20260903153022 | 74 | 29 | 13.0 | 16.0 | 0.00 | 0.33 | 0.33 | 92 | 1021.3 |
| 20260903152518 | 73 | 29 | 13.0 | 16.0 | 0.00 | 0.33 | 0.33 | 91 | 1021.2 |
| 20260903152014 | 72 | 29 | 13.0 | 16.0 | 0.00 | 0.33 | 0.33 | 93 | 1021.4 |
| 20260903151514 | 71 | 29 | 13.0 | 16.0 | 0.00 | 0.33 | 0.33 | 96 | 1021.3 |
| 20260903151009 | 72 | 29 | 13.0 | 16.0 | 0.00 | 0.33 | 0.33 | 95 | 1021.5 |
| 20260903150509 | 72 | 29 | 13.0 | 16.0 | 0.00 | 0.33 | 0.33 | 94 | 1021.6 |
| 20260903150003 | 72 | 29 | 13.0 | 16.0 | 0.00 | 0.33 | 0.33 | 95 | 1021.3 |
| 20260903145458 | 71 | 29 | 13.0 | 16.0 | 0.00 | 0.33 | 0.33 | 96 | 1021.3 |
| 20260903144954 | 71 | 29 | 13.0 | 16.0 | 0.00 | 0.33 | 0.33 | 97 | 1021.5 |
| 20260903144453 | 71 | 29 | 13.0 | 16.0 | 0.00 | 0.33 | 0.33 | 97 | 1021.6 |
| 20260903143949 | 70 | 29 | 13.0 | 16.0 | 0.00 | 0.33 | 0.33 | 96 | 1021.6 |
| 20260903143445 | 71 | 29 | 13.0 | 16.0 | 0.00 | 0.33 | 0.33 | 97 | 1021.6 |
| 20260903142940 | 71 | 29 | 13.0 | 16.0 | 0.00 | 0.33 | 0.33 | 97 | 1021.5 |
| 20260903142436 | 71 | 29 | 13.0 | 16.0 | 0.00 | 0.33 | 0.33 | 99 | 1021.5 |
| 20260903141932 | 71 | 29 | 13.0 | 16.0 | 0.00 | 0.33 | 0.33 | 99 | 1021.4 |
| 20260903141427 | 71 | 29 | 13.0 | 16.0 | 0.00 | 0.33 | 0.33 | 99 | 1021.4 |
| 20260903140923 | 70 | 29 | 13.0 | 16.0 | 0.00 | 0.33 | 0.33 | 99 | 1021.5 |
| 20260903140418 | 69 | 29 | 13.0 | 16.0 | 0.00 | 0.33 | 0.33 | 99 | 1021.4 |
| 20260903135908 | 70 | 29 | 13.0 | 16.0 | 0.00 | 0.33 | 0.33 | 99 | 1021.4 |
| 20260903135404 | 69 | 29 | 13.0 | 16.0 | 0.00 | 0.33 | 0.33 | 99 | 1021.4 |
| 20260903134902 | 69 | 29 | 13.0 | 16.0 | 0.00 | 0.33 | 0.33 | 99 | 1021.6 |
| 20260903134357 | 69 | 29 | 13.0 | 16.0 | 0.00 | 0.33 | 0.33 | 99 | 1021.6 |
| 20260903133855 | 69 | 29 | 13.0 | 16.0 | 0.00 | 0.33 | 0.33 | 99 | 1021.6 |
| 20260903133352 | 69 | 29 | 13.0 | 16.0 | 0.00 | 0.33 | 0.33 | 99 | 1021.5 |
| 20260903132852 | 69 | 29 | 13.0 | 16.0 | 0.00 | 0.33 | 0.33 | 99 | 1021.8 |
| 20260903132348 | 69 | 29 | 13.0 | 16.0 | 0.00 | 0.33 | 0.33 | 99 | 1021.7 |
| 20260903131847 | 68 | 29 | 13.0 | 16.0 | 0.00 | 0.33 | 0.33 | 99 | 1021.6 |
| 20260903131347 | 68 | 29 | 13.0 | 16.0 | 0.00 | 0.33 | 0.33 | 99 | 1021.4 |
| 20260903130846 | 68 | 29 | 13.0 | 16.0 | 0.00 | 0.33 | 0.33 | 99 | 1021.8 |
| 20260903130341 | 67 | 29 | 13.0 | 16.0 | 0.00 | 0.33 | 0.33 | 99 | 1022.0 |
| 20260903125839 | 67 | 29 | 13.0 | 16.0 | 0.00 | 0.33 | 0.33 | 99 | 1022.0 |
| 20260903125335 | 67 | 29 | 13.0 | 16.0 | 0.00 | 0.33 | 0.33 | 99 | 1021.8 |
| 20260903124834 | 67 | 29 | 13.0 | 16.0 | 0.00 | 0.33 | 0.33 | 99 | 1022.2 |
| 20260903124330 | 67 | 29 | 13.0 | 16.0 | 0.00 | 0.33 | 0.33 | 99 | 1022.0 |
| 20260903123828 | 67 | 29 | 13.0 | 16.0 | 0.00 | 0.33 | 0.33 | 99 | 1022.0 |
| 20260903123323 | 67 | 29 | 13.0 | 16.0 | 0.00 | 0.33 | 0.33 | 99 | 1022.0 |
| 20260903122821 | 67 | 29 | 13.0 | 16.0 | 0.00 | 0.33 | 0.33 | 99 | 1022.0 |
| 20260903122317 | 67 | 29 | 13.0 | 16.0 | 0.00 | 0.33 | 0.33 | 99 | 1022.0 |
| 20260903121815 | 67 | 29 | 13.0 | 16.0 | 0.00 | 0.33 | 0.33 | 99 | 1022.2 |
| 20260903121311 | 67 | 29 | 13.0 | 16.0 | 0.00 | 0.33 | 0.33 | 99 | 1022.5 |
| 20260903120807 | 67 | 29 | 13.0 | 16.0 | 0.00 | 0.33 | 0.33 | 99 | 1022.5 |
| 20260903120305 | 67 | 29 | 13.0 | 16.0 | 0.00 | 0.33 | 0.33 | 99 | 1022.4 |
| 20260903115804 | 67 | 29 | 13.0 | 16.0 | 0.00 | 0.33 | 0.33 | 99 | 1022.4 |
| 20260903115259 | 67 | 29 | 13.0 | 16.0 | 0.00 | 0.33 | 0.33 | 99 | 1022.5 |
| 20260903114759 | 67 | 29 | 13.0 | 16.0 | 0.00 | 0.33 | 0.33 | 99 | 1022.3 |
| 20260903114255 | 67 | 29 | 13.0 | 16.0 | 0.00 | 0.33 | 0.33 | 99 | 1022.2 |
| 20260903113750 | 67 | 29 | 13.0 | 16.0 | 0.00 | 0.33 | 0.33 | 99 | 1022.4 |
| 20260903113246 | 67 | 29 | 13.0 | 16.0 | 0.00 | 0.33 | 0.33 | 99 | 1022.5 |
| 20260903112741 | 67 | 29 | 13.0 | 16.0 | 0.00 | 0.33 | 0.33 | 99 | 1022.7 |
| 20260903112237 | 67 | 29 | 13.0 | 16.0 | 0.00 | 0.33 | 0.33 | 99 | 1022.4 |
| 20260903111735 | 67 | 29 | 13.0 | 16.0 | 0.00 | 0.33 | 0.33 | 99 | 1022.6 |
| 20260903111231 | 67 | 29 | 13.0 | 16.0 | 0.00 | 0.33 | 0.33 | 99 | 1022.5 |
| 20260903110727 | 67 | 29 | 13.0 | 16.0 | 0.00 | 0.33 | 0.33 | 99 | 1022.4 |
| 20260903110223 | 67 | 29 | 13.0 | 16.0 | 0.00 | 0.33 | 0.33 | 99 | 1022.5 |
| 20260903105722 | 67 | 29 | 13.0 | 16.0 | 0.00 | 0.33 | 0.33 | 99 | 1022.4 |
| 20260903105217 | 67 | 29 | 13.0 | 16.0 | 0.00 | 0.33 | 0.33 | 99 | 1022.5 |
| 20260903104717 | 67 | 29 | 13.0 | 16.0 | 0.00 | 0.33 | 0.33 | 99 | 1022.4 |
| 20260903104212 | 67 | 29 | 13.0 | 16.0 | 0.00 | 0.33 | 0.33 | 99 | 1022.7 |
| 20260903103708 | 67 | 29 | 13.0 | 16.0 | 0.00 | 0.33 | 0.33 | 99 | 1022.5 |
| 20260903103204 | 67 | 29 | 13.0 | 16.0 | 0.00 | 0.33 | 0.33 | 99 | 1022.2 |
| 20260903102659 | 67 | 29 | 13.0 | 16.0 | 0.00 | 0.33 | 0.33 | 99 | 1022.4 |
| 20260903102153 | 67 | 29 | 13.0 | 16.0 | 0.00 | 0.33 | 0.33 | 99 | 1022.2 |